Location: Unspecified
(0.0000°N, 0.0000°E)
Time: 21:26:52
(UTC+00:00)

AO-85 - Pass Details

Date: 06 December 2021
Orbit: 521 x 762 km, 64.8° (Epoch: 12 March)

Event Time Altitude Azimuth Distance (km) Brightness Sun altitude
Exits shadow 03:45:00 10° 190° (S) 1,875 ? -28.9°
Drops below altitude 10° 03:45:07 10° 189° (S) 1,915 ? -28.8°
Sets 03:47:28 0° 178° (S) 2,765 ? -28.3°
